Wind_Speed
21 20 21 20 19 19 17 17 14 19 23 19 23 27 27 28 30 26 24 26 25 32 29 31 35 35 36 33 28 29 28 27 23 20 20 21 21 22 21 23 23 23 25 27 27 28 28 27 25
24 23 22 21 21 18 19 20 19 23 24 24 27 33 35 32 30 28 27 28 28 30 26 30 32 36 37 34 34 33 30 23 20 18 18 20 21 19 20 22 24 26 27 27 28 30 29 29 28
28 27 27 25 21 19 24 21 18 24 28 30 36 37 44 29 25 25 24 27 28 30 31 31 33 38 36 37 37 35 33 23 19 19 21 22 20 20 21 23 25 26 27 28 29 30 30 28 29
29 31 30 27 21 23 24 21 28 30 29 31 33 32 29 19 21 24 29 34 35 33 34 36 33 35 35 33 39 35 34 27 22 25 27 24 22 23 25 28 29 28 25 24 22 23 25 27 29
33 33 32 26 24 25 21 22 28 32 33 35 19 14 13 21 26 31 37 41 36 34 31 32 32 31 32 34 38 36 33 31 28 30 31 27 26 26 29 30 28 23 21 22 22 21 21 21 23
36 34 31 27 22 26 21 30 35 27 21 25 30 28 28 35 35 40 46 43 34 32 30 31 32 31 33 35 37 36 34 31 30 33 35 30 29 29 31 29 26 25 25 25 24 23 22 21 22
38 39 37 34 29 34 29 39 37 25 14 17 25 26 29 33 41 44 47 43 33 37 40 37 31 35 31 37 40 37 37 34 33 34 36 33 31 31 31 27 26 27 29 28 26 24 24 22 22
44 48 45 46 43 36 32 37 41 37 28 36 34 35 37 39 39 40 42 43 41 43 49 43 42 45 39 37 37 36 33 33 33 32 35 34 30 31 28 26 27 28 29 28 27 24 24 25 26
50 57 50 45 41 39 30 39 40 38 34 33 33 33 36 36 38 41 41 42 42 49 58 55 55 51 49 38 33 34 32 36 33 32 34 32 29 30 27 27 28 28 28 28 27 28 29 29 28
56 58 55 44 43 47 36 42 31 29 35 29 42 35 36 35 38 41 40 42 44 50 56 58 59 56 46 41 33 33 34 38 35 33 34 31 28 29 28 27 29 28 28 28 27 27 30 31 27
57 62 53 50 48 49 48 47 48 45 43 32 38 40 36 30 33 39 40 42 44 54 54 59 55 49 45 39 35 30 34 38 36 33 34 29 27 29 29 29 29 30 30 30 30 27 29 32 29
65 61 59 56 57 54 53 48 46 48 41 38 36 42 38 35 46 42 41 49 53 54 52 58 48 44 35 36 30 30 34 38 35 33 32 28 25 28 30 29 30 32 34 35 32 30 31 31 31
61 56 62 60 58 60 56 55 51 49 45 41 40 41 43 44 43 46 48 52 51 55 56 48 45 31 30 31 26 30 34 36 34 33 31 26 25 28 31 31 33 34 37 40 37 32 32 29 29
64 70 66 68 66 61 60 59 56 52 44 43 44 43 43 49 51 47 50 52 49 52 48 46 40 27 29 27 27 31 36 35 34 33 29 24 25 29 31 33 37 37 41 42 41 36 33 32 29
74 75 77 72 68 64 60 59 56 43 42 40 42 45 49 47 45 41 35 38 43 43 43 42 32 26 28 27 28 34 36 35 33 32 27 24 24 30 33 37 38 42 44 43 44 40 36 35 33
68 69 68 61 63 62 59 57 44 42 46 44 43 46 44 41 38 31 31 37 40 38 38 40 37 33 31 29 30 35 38 35 32 27 24 23 25 31 35 38 40 43 46 46 44 43 40 36 35
62 64 62 54 52 61 64 50 45 45 43 42 41 39 39 36 28 30 31 34 33 33 38 37 38 34 31 32 31 37 39 33 30 26 24 21 26 30 36 41 42 45 45 45 45 43 39 37 34
59 56 55 54 49 49 53 51 44 41 40 41 38 30 32 30 29 29 29 26 31 33 35 35 39 40 36 37 37 36 38 32 32 25 25 27 30 33 37 41 44 44 43 44 44 39 37 35 34
59 59 56 52 49 48 44 46 42 37 37 37 33 30 30 32 27 24 21 24 28 29 32 35 35 35 33 32 32 35 33 32 27 25 27 31 34 37 39 42 42 41 41 42 38 35 33 31 26
59 58 53 54 53 49 47 45 45 37 35 35 29 30 33 26 25 20 23 25 28 31 36 40 36 32 25 27 28 32 31 28 25 28 29 31 34 37 39 39 39 38 37 34 31 28 27 25 20
62 60 54 54 51 48 51 48 41 34 32 30 31 29 30 25 19 21 23 24 28 33 35 33 36 27 24 23 26 29 26 25 27 29 30 33 34 33 35 35 36 31 28 25 22 21 19 19 19
63 60 58 56 53 51 47 49 41 30 30 32 29 30 25 17 19 22 23 25 28 33 32 27 23 23 20 22 26 23 22 25 28 28 31 31 30 31 30 30 27 25 19 17 18 19 18 18 18
59 60 61 61 57 55 51 49 25 31 30 26 28 27 16 16 20 24 24 26 30 27 23 21 21 19 18 23 23 20 21 25 26 28 27 29 28 26 24 23 20 15 15 17 18 19 18 19 19
60 62 64 61 58 61 46 46 24 24 20 22 21 17 16 15 22 20 22 24 19 17 17 19 18 17 19 21 18 19 22 23 24 24 25 25 25 22 20 18 15 13 14 15 15 13 13 15 13
62 63 62 62 65 53 46 46 20 15 16 26 21 18 14 15 16 18 20 19 15 14 18 18 16 16 18 18 18 20 21 22 22 21 23 24 22 17 17 13 11 10 18 20 13 12 12 10 8
61 60 61 61 60 53 52 50 32 16 23 14 18 17 12 14 15 19 20 18 16 17 17 14 13 15 16 16 18 19 21 21 19 21 23 20 17 14 12 11 10 8 17 16 13 8 10 8 6
56 62 57 61 59 58 52 47 40 25 26 8 12 8 5 9 15 15 13 9 12 12 11 12 12 14 15 15 17 18 19 20 20 23 17 14 11 11 8 9 8 6 11 14 11 7 7 5 4
55 55 56 60 59 59 52 48 41 28 28 21 18 9 10 15 9 11 11 7 8 9 10 10 11 13 13 15 15 16 18 19 22 17 13 10 8 8 7 5 6 4 10 9 11 12 7 2 2
53 55 56 59 60 56 51 49 42 25 23 19 19 8 10 7 9 12 11 9 10 10 9 9 11 11 12 12 13 16 18 20 15 13 9 8 6 5 3 5 3 3 8 3 10 10 13 8 2
49 57 59 61 60 56 52 48 30 34 30 24 17 10 8 2 9 12 11 10 9 10 8 8 10 12 11 11 14 16 17 13 12 8 7 7 5 4 1 3 3 1 6 6 10 9 10 9 4
Wind_Direction
215 210 205 196 193 197 204 215 206 229 242 245 236 234 241 250 265 270 289 306 312 316 314 326 332 338 342 340 337 338 335 329 321 310 309 309 310 307 305 305 306 307 309 307 302 296 290 284 275
220 211 208 203 199 205 212 231 229 239 241 239 239 252 249 243 248 258 287 307 321 325 326 328 328 331 337 338 337 339 337 329 314 309 306 305 302 301 303 303 303 305 302 301 300 298 290 284 279
223 220 214 209 203 215 220 233 235 249 249 244 243 244 245 247 247 266 286 302 313 326 323 324 328 329 335 330 331 339 338 332 319 310 304 302 297 300 301 300 300 300 300 299 293 289 287 281 273
225 226 224 220 207 217 231 237 254 258 271 263 278 247 250 272 272 276 297 309 314 317 323 329 327 328 328 331 332 339 337 330 321 313 310 307 303 305 308 308 310 311 312 310 302 292 287 282 273
227 228 226 223 222 227 224 240 242 252 259 274 283 282 258 292 293 292 298 304 312 308 315 334 323 318 324 334 333 335 335 325 318 316 313 308 306 311 314 317 317 321 321 317 312 307 301 291 283
231 230 230 227 219 230 221 239 246 258 266 266 273 275 296 295 288 290 296 301 294 302 314 320 319 321 324 327 334 330 329 325 316 314 313 308 311 315 318 318 320 321 319 315 312 308 302 299 288
234 232 230 230 234 246 230 241 246 252 249 270 284 287 281 278 285 292 291 293 291 308 308 310 315 318 324 324 326 329 323 320 313 312 311 307 312 315 317 315 320 320 316 314 311 307 302 294 289
238 238 235 232 238 238 233 237 246 258 237 247 255 263 267 271 276 286 292 295 298 308 312 316 314 319 315 318 320 323 318 313 308 307 306 303 309 313 314 316 320 320 318 316 314 309 305 299 288
242 243 242 242 245 235 243 248 243 248 236 251 243 249 260 264 277 280 288 288 298 312 316 315 314 316 311 314 315 316 317 311 307 302 301 300 309 312 313 316 316 319 317 315 312 306 304 303 290
244 246 247 247 247 243 240 257 253 243 255 241 267 243 243 262 277 273 283 285 298 305 307 307 307 311 308 311 314 313 317 308 304 298 298 300 308 310 309 312 312 318 317 318 312 306 303 302 296
249 250 256 250 251 251 257 258 277 254 262 277 269 253 261 269 277 275 265 278 289 297 298 298 301 305 310 300 310 309 312 305 300 295 296 298 305 307 305 309 312 318 314 312 310 305 301 301 296
253 253 258 261 257 255 259 265 258 265 269 269 263 267 269 266 271 274 274 284 289 293 294 295 300 299 307 302 303 306 307 301 296 291 294 294 301 301 301 303 310 312 315 310 307 303 301 303 296
254 250 254 257 259 260 258 257 259 256 257 263 270 264 269 274 277 272 281 285 290 289 290 287 291 307 294 303 299 301 302 295 290 289 290 292 295 297 297 302 308 309 311 311 310 305 301 301 295
252 256 256 258 263 260 255 262 262 262 263 268 269 268 271 269 275 281 279 278 277 277 280 283 295 290 291 294 289 296 299 290 289 290 285 291 293 295 296 299 302 308 307 305 308 308 301 299 295
252 253 255 259 261 259 259 258 260 276 274 270 269 266 265 266 269 275 272 268 272 279 280 283 292 282 285 280 288 292 295 288 290 288 283 287 288 287 293 293 300 301 301 308 309 307 302 296 289
253 253 254 259 260 260 255 261 267 270 271 270 272 270 266 265 273 269 270 273 275 278 279 279 286 284 282 282 279 285 287 285 288 279 287 286 287 287 286 293 295 301 307 309 308 305 301 295 289
249 251 255 257 257 259 257 258 264 263 267 269 269 269 267 269 264 267 266 272 276 280 281 288 289 288 281 275 274 281 282 283 282 283 292 289 284 288 286 290 301 304 307 305 303 304 301 295 287
252 257 255 257 256 255 258 262 267 264 260 259 261 257 260 266 266 268 269 270 269 272 281 284 282 282 279 273 275 275 277 283 283 289 296 292 289 289 292 301 304 308 305 304 304 303 299 294 285
248 249 250 252 256 256 258 265 261 258 254 251 253 256 264 259 263 272 276 268 270 279 283 282 279 283 280 278 273 273 277 283 287 295 300 296 298 301 303 306 306 305 306 302 302 301 294 291 285
243 247 245 250 254 258 258 256 259 248 246 255 259 259 258 266 272 274 267 268 278 278 278 276 278 271 276 276 269 271 277 285 294 301 303 299 298 302 305 303 307 306 302 304 305 301 296 291 280
240 241 243 248 251 249 256 253 253 249 247 253 257 255 255 263 265 264 268 275 278 281 286 287 281 269 261 261 258 266 278 287 297 299 301 299 299 302 305 306 305 306 307 305 306 304 300 293 287
237 241 241 244 246 249 251 254 250 243 240 241 246 249 256 263 264 268 274 280 280 280 286 287 271 251 254 256 260 274 281 291 294 295 293 296 300 306 307 305 311 307 309 315 314 314 308 300 292
235 235 238 240 242 246 248 254 236 242 237 240 243 256 252 252 260 263 268 275 274 280 283 277 265 259 262 261 273 278 292 294 291 291 297 298 303 306 306 308 307 320 324 321 317 314 308 301 301
230 232 233 235 239 241 240 251 235 236 233 230 241 241 235 254 260 268 283 286 276 273 260 258 257 262 260 271 274 292 295 289 293 294 296 297 304 311 308 312 316 329 321 318 320 325 322 324 322
226 228 230 232 234 238 236 242 239 214 227 238 237 230 243 260 268 278 283 265 258 253 247 253 257 258 268 272 288 292 291 295 294 298 299 305 307 312 310 317 324 324 345 350 335 324 329 334 346
221 224 228 230 234 235 235 237 232 209 233 224 225 235 257 267 271 270 267 260 247 239 249 256 258 263 274 284 291 293 296 296 299 298 302 306 310 318 319 322 321 338 346 344 345 340 347 350 358
218 221 223 227 229 228 229 231 232 210 233 210 237 240 228 262 256 271 279 248 233 231 234 257 254 269 282 293 292 296 298 299 297 302 306 308 316 312 332 330 318 338 346 346 353 336 326 351 349
213 217 216 221 221 227 224 226 224 208 237 230 235 239 236 255 266 271 275 247 238 236 252 252 269 282 291 292 295 301 299 297 301 304 313 320 320 319 347 319 309 339 350 19 26 18 349 318 13
211 211 214 216 220 221 223 222 220 211 215 223 234 199 240 239 253 265 263 248 247 245 249 271 278 285 293 290 298 298 295 302 311 314 315 324 324 309 7 301 288 346 3 28 16 28 44 26 293
216 206 210 212 217 217 220 216 218 212 219 235 229 193 228 285 255 262 259 251 241 248 254 272 278 284 290 296 300 299 301 312 313 303 319 323 324 292 359 286 263 349 22 34 8 11 20 20 28
Height
5890 5892 5894 5897 5901 5901 5900 5899 5900 5899 5898 5900 5899 5897 5898 5900 5901 5904 5900 5898 5896 5895 5892 5890 5888 5886 5884 5882 5880 5876 5872 5868 5866 5863 5860 5858 5857 5855 5852 5850 5847 5844 5841 5839 5838 5837 5836 5834 5833
5887 5889 5892 5894 5897 5897 5897 5895 5897 5896 5896 5897 5898 5892 5892 5894 5897 5900 5897 5894 5893 5892 5888 5886 5884 5883 5880 5877 5876 5873 5869 5865 5862 5858 5856 5855 5853 5850 5848 5845 5843 5839 5837 5834 5832 5830 5829 5828 5826
5883 5885 5888 5889 5893 5895 5893 5892 5893 5893 5891 5892 5892 5889 5883 5891 5894 5894 5891 5890 5891 5890 5885 5884 5883 5880 5876 5873 5871 5868 5864 5861 5858 5855 5853 5850 5848 5845 5843 5840 5839 5835 5831 5828 5826 5824 5821 5821 5820
5880 5882 5884 5886 5890 5891 5891 5892 5890 5889 5888 5886 5887 5888 5882 5882 5884 5886 5885 5883 5886 5885 5883 5882 5880 5878 5875 5870 5865 5863 5860 5857 5854 5852 5849 5845 5843 5840 5837 5833 5831 5828 5825 5821 5819 5817 5815 5813 5812
5875 5876 5877 5882 5886 5887 5888 5886 5885 5883 5885 5879 5881 5882 5883 5879 5879 5878 5877 5878 5881 5880 5880 5878 5877 5876 5872 5866 5862 5860 5856 5853 5851 5847 5844 5840 5837 5834 5830 5827 5824 5821 5818 5816 5814 5811 5810 5809 5807
5869 5870 5872 5877 5881 5882 5885 5878 5878 5878 5880 5878 5874 5876 5876 5874 5875 5874 5872 5873 5875 5877 5877 5877 5874 5872 5868 5864 5859 5856 5853 5849 5846 5842 5839 5836 5831 5828 5824 5820 5817 5815 5813 5811 5809 5806 5804 5803 5802
5861 5862 5866 5869 5874 5877 5879 5872 5872 5875 5875 5873 5871 5871 5871 5871 5870 5869 5865 5867 5870 5868 5868 5870 5870 5868 5867 5861 5855 5850 5848 5845 5842 5837 5834 5830 5827 5823 5820 5816 5812 5809 5807 5806 5803 5801 5800 5798 5797
5853 5852 5856 5860 5867 5873 5863 5867 5866 5869 5873 5871 5872 5870 5869 5868 5868 5867 5862 5859 5858 5859 5858 5859 5860 5859 5858 5859 5853 5847 5845 5842 5838 5834 5830 5826 5823 5819 5816 5812 5808 5805 5802 5800 5797 5796 5795 5792 5791
5843 5839 5847 5855 5860 5867 5855 5854 5862 5865 5867 5865 5865 5867 5863 5862 5863 5858 5857 5853 5851 5848 5846 5848 5848 5851 5848 5851 5848 5843 5839 5835 5832 5829 5825 5822 5818 5814 5811 5807 5803 5800 5797 5794 5793 5791 5789 5786 5784
5831 5833 5840 5851 5852 5856 5855 5846 5857 5859 5859 5862 5860 5859 5859 5860 5858 5855 5853 5851 5847 5847 5847 5843 5840 5842 5839 5840 5838 5835 5831 5829 5827 5824 5820 5817 5813 5809 5806 5802 5799 5795 5792 5789 5788 5786 5783 5780 5778
5825 5825 5836 5842 5843 5845 5848 5848 5844 5848 5851 5855 5856 5855 5856 5857 5857 5857 5852 5850 5850 5847 5845 5841 5838 5835 5834 5833 5833 5829 5827 5823 5820 5818 5814 5811 5807 5804 5800 5798 5794 5790 5787 5784 5783 5781 5778 5774 5772
5814 5820 5822 5830 5834 5834 5836 5842 5841 5839 5842 5847 5848 5845 5850 5853 5851 5846 5847 5844 5843 5842 5838 5832 5832 5829 5829 5827 5825 5822 5820 5817 5814 5811 5808 5805 5802 5798 5795 5792 5789 5786 5782 5779 5777 5775 5772 5769 5765
5804 5814 5809 5815 5821 5824 5826 5825 5829 5832 5836 5838 5839 5840 5841 5840 5841 5841 5839 5837 5835 5831 5828 5825 5823 5824 5823 5820 5817 5815 5814 5811 5807 5805 5802 5799 5796 5793 5790 5786 5783 5780 5776 5773 5770 5768 5765 5763 5760
5798 5795 5801 5803 5807 5812 5813 5816 5819 5823 5831 5832 5832 5833 5833 5832 5831 5831 5831 5828 5826 5822 5820 5815 5816 5817 5815 5812 5809 5808 5807 5804 5801 5799 5796 5793 5791 5788 5785 5780 5777 5774 5770 5766 5762 5761 5758 5755 5755
5780 5780 5784 5792 5797 5799 5804 5800 5805 5820 5820 5820 5821 5823 5822 5822 5823 5823 5821 5818 5815 5812 5811 5807 5811 5808 5807 5805 5803 5802 5800 5798 5795 5792 5790 5787 5785 5783 5779 5774 5770 5766 5762 5758 5754 5751 5749 5748 5746
5765 5767 5772 5784 5788 5790 5791 5785 5807 5809 5808 5809 5808 5807 5809 5812 5814 5812 5810 5807 5805 5803 5802 5799 5801 5801 5800 5798 5797 5794 5794 5792 5789 5787 5784 5782 5780 5776 5773 5768 5765 5759 5754 5749 5744 5741 5739 5738 5736
5752 5758 5763 5776 5779 5779 5778 5778 5792 5795 5798 5796 5797 5799 5801 5802 5803 5803 5802 5800 5798 5795 5793 5793 5791 5792 5790 5789 5789 5788 5787 5785 5783 5781 5778 5776 5773 5771 5767 5762 5756 5750 5746 5741 5737 5733 5729 5728 5727
5747 5754 5756 5758 5767 5767 5766 5765 5779 5784 5786 5785 5787 5791 5792 5793 5794 5795 5793 5791 5789 5787 5787 5784 5782 5782 5783 5781 5781 5781 5779 5778 5775 5774 5771 5768 5767 5764 5759 5753 5747 5742 5738 5732 5727 5725 5720 5718 5716
5732 5735 5740 5748 5752 5754 5759 5758 5765 5771 5772 5773 5778 5781 5785 5783 5787 5785 5783 5781 5779 5779 5777 5775 5775 5775 5775 5775 5772 5773 5771 5769 5768 5766 5763 5760 5755 5751 5749 5743 5739 5735 5730 5725 5719 5715 5712 5710 5708
5720 5724 5734 5737 5740 5746 5748 5748 5751 5760 5763 5763 5770 5775 5776 5778 5777 5775 5774 5773 5771 5770 5769 5768 5768 5767 5767 5767 5766 5765 5763 5762 5759 5757 5754 5752 5748 5745 5741 5737 5733 5728 5723 5717 5713 5709 5705 5702 5701
5707 5712 5724 5725 5730 5736 5733 5736 5745 5753 5755 5760 5759 5766 5766 5769 5768 5767 5766 5764 5763 5762 5761 5759 5759 5760 5760 5761 5761 5760 5758 5755 5753 5750 5748 5745 5742 5740 5736 5731 5726 5720 5716 5711 5707 5703 5699 5696 5694
5693 5704 5710 5713 5719 5723 5727 5723 5734 5746 5749 5750 5755 5755 5759 5760 5760 5759 5757 5757 5756 5755 5754 5752 5751 5752 5753 5755 5755 5755 5753 5750 5748 5746 5742 5739 5737 5734 5731 5725 5719 5715 5711 5707 5703 5698 5694 5691 5689
5687 5689 5695 5701 5708 5712 5718 5720 5731 5737 5739 5746 5748 5751 5753 5752 5752 5752 5752 5750 5749 5748 5746 5746 5745 5746 5748 5750 5750 5748 5747 5744 5742 5739 5736 5733 5731 5730 5725 5720 5716 5711 5707 5704 5699 5695 5690 5687 5684
5670 5676 5680 5690 5696 5695 5715 5718 5720 5730 5736 5738 5740 5742 5744 5745 5744 5745 5744 5744 5742 5741 5740 5741 5742 5743 5744 5745 5744 5742 5740 5738 5736 5734 5732 5729 5727 5724 5719 5716 5711 5708 5704 5699 5696 5692 5688 5684 5680
5653 5660 5667 5678 5679 5696 5709 5709 5718 5725 5729 5728 5732 5736 5738 5738 5738 5739 5738 5737 5735 5735 5735 5737 5738 5739 5740 5739 5738 5736 5734 5732 5731 5730 5727 5724 5721 5718 5715 5712 5709 5705 5702 5697 5694 5690 5687 5683 5681
5636 5647 5656 5667 5674 5690 5697 5696 5708 5722 5719 5723 5728 5731 5734 5733 5733 5732 5732 5731 5730 5731 5732 5733 5735 5736 5735 5734 5731 5730 5728 5727 5726 5724 5722 5718 5715 5713 5711 5709 5707 5704 5700 5696 5692 5689 5687 5684 5682
5627 5634 5652 5655 5663 5674 5685 5693 5702 5715 5714 5720 5723 5727 5728 5730 5728 5727 5727 5726 5726 5728 5729 5731 5732 5731 5730 5728 5727 5726 5724 5723 5722 5719 5717 5714 5712 5710 5709 5707 5705 5703 5700 5696 5692 5688 5686 5685 5683
5619 5630 5634 5644 5652 5662 5677 5683 5692 5709 5710 5713 5716 5721 5725 5724 5723 5724 5724 5723 5725 5726 5728 5728 5727 5726 5725 5724 5722 5721 5721 5719 5718 5714 5712 5710 5709 5707 5707 5707 5705 5703 5700 5696 5693 5688 5686 5685 5684
5610 5616 5624 5633 5643 5657 5669 5677 5688 5704 5707 5709 5711 5716 5719 5718 5720 5721 5722 5722 5723 5724 5724 5724 5723 5723 5722 5721 5720 5719 5718 5715 5713 5710 5709 5708 5706 5706 5707 5706 5705 5702 5699 5697 5694 5690 5687 5685 5684
5594 5604 5612 5619 5636 5650 5660 5671 5689 5694 5698 5703 5707 5710 5714 5714 5716 5718 5718 5718 5720 5721 5721 5720 5720 5720 5719 5718 5717 5716 5714 5712 5710 5708 5707 5706 5705 5705 5707 5706 5704 5702 5699 5698 5695 5691 5688 5686 5683